Hopkins, SC

7:13 AM EST on February 11, 2016 (GMT -0500)
McEntire Angs

Weather History for KMMT - December, 2011

Change the Weather History Date:

Monday, December 12, 2011

  Actual Average Record
Temperature  
Mean Temperature 48 °F -  
Max Temperature 54 °F 55 °F 78 °F (2007)
Min Temperature 41 °F 36 °F 23 °F (2014)
Degree Days  
Heating Degree Days 18    
Moisture  
Dew Point 33 °F    
Average Humidity 62    
Maximum Humidity 73    
Minimum Humidity 51    
Precipitation  
Precipitation 0.00 in - - ()
Sea Level Pressure  
Sea Level Pressure 30.47 in    
Wind  
Wind Speed 6 mph (NNE)    
Max Wind Speed 9 mph    
Max Gust Speed -    
Visibility 10 miles    
Events Rain    
Averages and records for this station are not official NWS values.
T = Trace of Precipitation, MM = Missing Value Source: NWS Daily Summary

Daily Weather History Graph

Daily Weather History Graph

Search for Another Location

Airport or City:

Trip Planner

Search our weather history database for the weather conditions in past years. The results will help you decide how hot, cold, wet, or windy it might be!

Date:

Astronomy

Dec. 12, 2011 Rise Set
Actual Time 7:18 AM EST 5:14 PM EST
Civil Twilight 6:51 AM EST 5:42 PM EST
Nautical Twilight 6:20 AM EST 6:13 PM EST
Astronomical Twilight 5:49 AM EST 6:44 PM EST
Moon 7:21 PM EST (12/12) 8:51 AM EST (12/12)
Length of Visible Light 10h 51m
Length of Day
9h 56m
Waning Gibbous, 96% of the Moon is Illuminated
Dec 12
Waning Gibbous
Dec 17
Last Quarter
Dec 24
New
Jan 1
First Quarter
Jan 9
Full

Hourly Weather History & Observations

Time (EST) Temp. Windchill Dew Point Humidity Pressure Visibility Wind Dir Wind Speed Gust Speed Precip Events Conditions
12:55 AM 42.1 °F 40.2 °F 25.0 °F 51% 30.51 in 10.0 mi Variable 3.5 mph - N/A   Overcast
1:55 AM 42.1 °F 38.4 °F 25.3 °F 52% 30.50 in 10.0 mi NNE 5.8 mph - N/A   Overcast
2:55 AM 41.9 °F 36.3 °F 25.7 °F 53% 30.47 in 10.0 mi NNE 9.2 mph - N/A   Overcast
3:55 AM 41.5 °F 36.4 °F 26.2 °F 55% 30.44 in 10.0 mi NNE 8.1 mph - N/A   Overcast
4:55 AM 41.5 °F 38.6 °F 26.8 °F 56% 30.47 in 10.0 mi NNE 4.6 mph - N/A   Overcast
5:55 AM 41.5 °F 37.8 °F 27.5 °F 57% 30.48 in 10.0 mi Variable 5.8 mph - N/A   Overcast
6:55 AM 41.4 °F 36.2 °F 28.4 °F 60% 30.49 in 10.0 mi North 8.1 mph - N/A   Overcast
7:55 AM 41.7 °F 38.0 °F 29.3 °F 61% 30.50 in 10.0 mi NNE 5.8 mph - N/A   Overcast
8:55 AM 41.9 °F 39.0 °F 30.4 °F 64% 30.52 in 10.0 mi Variable 4.6 mph - N/A   Overcast
8:57 AM 42.8 °F 41.1 °F 30.2 °F 61% 30.52 in 10.0 mi NNE 3.5 mph - N/A Rain Light Rain
9:44 AM 41.0 °F 37.1 °F 32.0 °F 70% 30.53 in 10.0 mi NNE 5.8 mph - N/A   Scattered Clouds
9:55 AM 41.9 °F 38.2 °F 32.2 °F 68% 30.53 in 10.0 mi NNE 5.8 mph - 0.00 in   Overcast
10:14 AM 42.8 °F 38.0 °F 32.0 °F 66% 30.52 in 10.0 mi NNE 8.1 mph - N/A Rain Light Rain
10:25 AM 42.8 °F 38.6 °F 33.8 °F 70% 30.52 in 10.0 mi Variable 6.9 mph - N/A Rain Light Rain
10:55 AM 42.4 °F 38.1 °F 32.5 °F 68% 30.52 in 10.0 mi NNE 6.9 mph - 0.00 in   Mostly Cloudy
11:55 AM 45.3 °F 41.6 °F 33.8 °F 64% 30.50 in 10.0 mi North 6.9 mph - N/A   Mostly Cloudy
12:16 PM 48.2 °F - 33.8 °F 58% 30.46 in 10.0 mi NNE 8.1 mph - N/A   Mostly Cloudy
12:55 PM 51.4 °F - 36.5 °F 57% 30.47 in 10.0 mi NNE 6.9 mph - N/A   Mostly Cloudy
1:55 PM 53.8 °F - 38.3 °F 56% 30.43 in 10.0 mi Variable 4.6 mph - N/A   Scattered Clouds
2:55 PM 54.5 °F - 38.8 °F 56% 30.42 in 10.0 mi NNE 3.5 mph - N/A   Scattered Clouds
3:55 PM 53.8 °F - 39.6 °F 59% 30.40 in 10.0 mi NNE 8.1 mph - N/A   Scattered Clouds
4:55 PM 52.5 °F - 39.7 °F 62% 30.42 in 10.0 mi NNE 4.6 mph - N/A   Mostly Cloudy
5:55 PM 51.4 °F - 39.7 °F 64% 30.43 in 10.0 mi NNE 4.6 mph - N/A   Mostly Cloudy
6:55 PM 50.2 °F - 38.7 °F 65% 30.44 in 10.0 mi Variable 3.5 mph - N/A   Mostly Cloudy
7:55 PM 48.4 °F - 37.2 °F 65% 30.45 in 10.0 mi Variable 3.5 mph - N/A   Mostly Cloudy
8:55 PM 48.0 °F - 35.8 °F 63% 30.46 in 10.0 mi NNE 5.8 mph - N/A   Mostly Cloudy
9:55 PM 46.2 °F 45.0 °F 35.4 °F 66% 30.46 in 10.0 mi Variable 3.5 mph - N/A   Scattered Clouds
10:55 PM 44.1 °F 42.5 °F 35.1 °F 71% 30.45 in 10.0 mi NE 3.5 mph - N/A   Partly Cloudy
11:55 PM 42.6 °F 40.9 °F 34.5 °F 73% 30.45 in 10.0 mi NNE 3.5 mph - N/A   Clear